Weather History for El Paso, TX

Change the Weather History Date:

Monday, July 8, 2013

  Actual Average Record
Temperature  
Mean Temperature 89 °F 83 °F  
Max Temperature 98 °F 96 °F 107 °F (1951)
Min Temperature 79 °F 71 °F 60 °F (1985)
Degree Days  
Heating Degree Days 0 0  
Month to date heating degree days 0 0  
Since 1 June heating degree days 0 0  
Since 1 July heating degree days 0 0  
Cooling Degree Days 24 18  
Month to date cooling degree days 151 147  
Year to date cooling degree days 1322 1026  
Since 1 June cooling degree days 814 649  
Growing Degree Days 38 (Base 50)    
Moisture  
Dew Point 50 °F    
Average Humidity 28    
Maximum Humidity 37    
Minimum Humidity 18    
Precipitation  
Precipitation 0.00 in 0.04 in 1.75 in (1960)
Month to date precipitation 0.08 0.33  
Year to date precipitation 1.13 3.09  
Snow  
Snow 0.00 in - - ()
Month to date snowfall 0.0  
Since 1 June snowfall 0.0  
Since 1 July snowfall 0.0  
Snow Depth 0.00 in    
Sea Level Pressure  
Sea Level Pressure 29.81 in    
Wind  
Wind Speed 10 mph (East)    
Max Wind Speed 20 mph    
Max Gust Speed 26 mph    
Visibility 10 miles    
Events      
T = Trace of Precipitation, MM = Missing Value Source: NWS Daily Summary

Daily Weather History Graph

Daily Weather History Graph

Search for Another Location

Airport:

Trip Planner

Search our weather history database for the weather conditions in past years. The results will help you decide how hot, cold, wet, or windy it might be!

Date:

Astronomy

Jul. 08, 2013 Rise Set
Actual Time 6:06 AM MDT 8:14 PM MDT
Civil Twilight 5:39 AM MDT 8:42 PM MDT
Nautical Twilight 5:05 AM MDT 9:15 PM MDT
Astronomical Twilight 4:28 AM MDT 9:52 PM MDT
Moon 6:33 AM MDT (7/8) 8:25 PM MDT (7/8)
Length of Visible Light 15h 02m
Length of Day
14h 07m
New Moon, 0% of the Moon is Illuminated
Jul 8
New Moon
Jul 15
First Quarter
Jul 22
Full
Jul 29
Last Quarter
Aug 6
New

Hourly Weather History & Observations

Time (MDT) Temp. Heat Index Dew Point Humidity Pressure Visibility Wind Dir Wind Speed Gust Speed Precip Events Conditions
12:51 AM 84.9 °F - 50.0 °F 30% 29.76 in 10.0 mi East 6.9 mph - N/A   Mostly Cloudy
1:51 AM 82.9 °F - 51.1 °F 33% 29.77 in 10.0 mi East 9.2 mph - N/A   Mostly Cloudy
2:51 AM 82.0 °F - 51.1 °F 34% 29.79 in 10.0 mi Calm Calm - N/A   Overcast
3:51 AM 82.0 °F - 51.1 °F 34% 29.80 in 10.0 mi NE 5.8 mph - N/A   Overcast
4:51 AM 81.0 °F - 51.1 °F 35% 29.81 in 10.0 mi NE 6.9 mph - N/A   Mostly Cloudy
5:51 AM 80.1 °F - 51.1 °F 36% 29.82 in 10.0 mi NE 5.8 mph - N/A   Mostly Cloudy
6:51 AM 80.1 °F - 52.0 °F 38% 29.83 in 10.0 mi Calm Calm - N/A   Mostly Cloudy
7:51 AM 82.0 °F 81.2 °F 53.1 °F 37% 29.85 in 10.0 mi ESE 4.6 mph - N/A   Mostly Cloudy
8:51 AM 82.0 °F 81.3 °F 54.0 °F 38% 29.86 in 10.0 mi ESE 11.5 mph - N/A   Mostly Cloudy
9:51 AM 84.9 °F 83.3 °F 54.0 °F 34% 29.86 in 10.0 mi ESE 6.9 mph - N/A   Mostly Cloudy
10:51 AM 88.0 °F - 52.0 °F 29% 29.86 in 10.0 mi ENE 11.5 mph 20.7 mph N/A   Mostly Cloudy
11:51 AM 93.0 °F - 51.1 °F 24% 29.85 in 10.0 mi East 9.2 mph 18.4 mph N/A   Mostly Cloudy
12:51 PM 93.0 °F - 51.1 °F 24% 29.83 in 10.0 mi East 11.5 mph 17.3 mph N/A   Scattered Clouds
1:51 PM 96.1 °F - 48.9 °F 20% 29.81 in 10.0 mi ENE 13.8 mph 18.4 mph N/A   Scattered Clouds
2:51 PM 96.1 °F - 46.0 °F 18% 29.79 in 10.0 mi East 11.5 mph 21.9 mph N/A   Scattered Clouds
3:51 PM 96.1 °F - 46.9 °F 19% 29.77 in 10.0 mi East 11.5 mph 19.6 mph N/A   Scattered Clouds
4:51 PM 97.0 °F - 46.9 °F 18% 29.75 in 10.0 mi East 11.5 mph 20.7 mph N/A   Partly Cloudy
5:51 PM 97.0 °F - 46.9 °F 18% 29.74 in 10.0 mi ESE 12.7 mph 20.7 mph N/A   Scattered Clouds
6:51 PM 96.1 °F - 46.9 °F 19% 29.74 in 10.0 mi East 12.7 mph 24.2 mph N/A   Scattered Clouds
7:51 PM 93.0 °F - 46.9 °F 20% 29.76 in 10.0 mi ENE 11.5 mph - N/A   Scattered Clouds
8:51 PM 91.0 °F - 48.0 °F 23% 29.78 in 10.0 mi East 10.4 mph - N/A   Partly Cloudy
9:51 PM 89.1 °F - 48.0 °F 24% 29.81 in 10.0 mi East 12.7 mph 19.6 mph N/A   Partly Cloudy
10:51 PM 87.1 °F - 52.0 °F 30% 29.82 in 10.0 mi East 15.0 mph - N/A   Partly Cloudy
11:51 PM 84.9 °F 83.6 °F 55.0 °F 36% 29.84 in 10.0 mi East 16.1 mph 26.5 mph N/A   Partly Cloudy